NOAA NWS Hourly Roundups by Site

Regional Weather Roundup for Green Bay, WI

To Select Another Site Choose from List

Select Site:  

000
ASUS43 KGRB 271111
RWRGRB

NORTH-CENTRAL AND NORTHEAST WISCONSIN REGIONAL WEATHER ROUNDUP
NATIONAL WEATHER SERVICE GREEN BAY WI
500 AM CST MON JAN 27 2020

WIZ005-009-010>012-018-019-271200-
NORTH CENTRAL WISCONSIN

CITY           SKY/WX    TMP DP  RH WIND       PRES   REMARKS
IRONWOOD       LGT SNOW  26  25  96 W6        29.93F FOG
MANITOWISH WTR LGT SNOW  26  26 100 NW3       29.91S
ARBOR VITAE    CLOUDY    28  25  89 CALM      29.91R
EAGLE RIVER    MIX PCPN  27  27 100 N3        29.89S
LAND O LAKES   LGT SNOW  27  26  95 N5        29.91S
RHINELANDER    CLOUDY    27  24  89 CALM      29.90R
PHILLIPS       CLOUDY    26  26 100 NW5       29.92R
ANTIGO         CLOUDY    26  26  97 CALM      29.90R
TOMAHAWK       CLOUDY    26  24  93 CALM      29.92R
MERRILL        CLOUDY    28  26  91 N6        29.92S
$$

WIZ013-073-271200-
NORTHEAST WISCONSIN

CITY           SKY/WX    TMP DP  RH WIND       PRES   REMARKS
IRON MOUNTAIN  CLOUDY    28  24  85 NW7       29.89S
MARINETTE      CLOUDY    31  27  85 CALM        N/A
OCONTO         CLOUDY    31  27  84 N5        29.92R
$$

WIZ017-030-035>037-045-271200-
CENTRAL WISCONSIN

CITY           SKY/WX    TMP DP  RH WIND       PRES   REMARKS
MEDFORD        CLOUDY    26  25  96 N5        29.91R
WAUSAU         CLOUDY    28  25  88 NW5       29.90R
MOSINEE        CLOUDY    28  27  93 NW5       29.92R
MARSHFIELD     CLOUDY    26  24  92 NW7       29.90R
WISC RAPIDS    CLOUDY    27  24  89 NW5       29.93R
STEVENS POINT  CLOUDY    26  26  97 N3        29.93R
WAUPACA        CLOUDY    32  28  84 NW3       29.93R
SHAWANO        CLOUDY    33  28  85 N6        29.92R
CLINTONVILLE   CLOUDY    32  26  81 N3        29.92R
WAUTOMA        CLOUDY    28  26  92 NW3       29.93R
$$

WIZ038-039-048-051-271200-
FOX VALLEY

CITY           SKY/WX    TMP DP  RH WIND       PRES   REMARKS
NWS GREEN BAY  CLOUDY    32  27  81 NE3       29.91S
APPLETON       CLOUDY    30  28  93 N7        29.89S
OSHKOSH        CLOUDY    29  26  89 NW3       29.90R
FOND DU LAC    CLOUDY    30  26  85 N3        29.91R
$$

WIZ022-050-052-271200-
EAST CENTRAL WISCONSIN

CITY           SKY/WX    TMP DP  RH WIND       PRES   REMARKS
EPHRAIM        CLOUDY    30  26  83 N8        29.88S
WASHINGTON ISL CLOUDY    30  27  89 N9        29.89S
STURGEON BAY   CLOUDY    30  26  85 NW9       29.91S
MANITOWOC      CLOUDY    31  28  89 N5        29.91S
SHEBOYGAN      CLOUDY    31  27  85 N6        29.90R
$$

LMZ563-521-522-541>543-271200-
LAKESHORE

STATION/POSITION TIME  TEMP    WIND        PRES    VSBY  WAVE
                       AIR SEA DIR/SP/G                  HT/PER
                 (UTC) (F)     (DEG/KT/KT) (MB)    (MI)  (FT/S)
SHEBOYGAN LKSHOR 1100   31     340/  8/  9   N/A
KEWAUNEE LKSHORE 1030   31                 1012.2R
NORTHPORT PIER   1040   31     300/  8/ 10 1012.2S
SISTER BAY LKSHO 1057   31     350/  7/  8   N/A
MENOMINEE LKSHOR 1030   30 36              1012.7S
$$


 

View Past Reports for Green Bay, WI.

Products Courtesy of NOAA-NWS
NWS Information Parsing Script by Ken True at Saratoga Weather - Script by SE Lincoln Weather.